Location: Skoghall
(59.3232°N, 13.4653°E)
Time: 15:27:01
(UTC+01:00)

ISS - Pass Details

Date: 02 December 2021
Orbit: 413 x 422 km, 51.6° (Epoch: 18 January)

Event Time Altitude Azimuth Distance (km) Brightness Sun altitude
Rises 17:47:50 0° 260° (W) 2,386 1.8 -17.9°
Reaches altitude 10° 17:50:21 10° 242° (WSW) 1,517 0.2 -18.2°
Maximum altitude 17:52:48 19° 196° (SSW) 1,096 -1.3 -18.5°
Enters shadow 17:54:35 13° 158° (SSE) 1,334 -1.3 -18.7°
